Regional Weather Roundup
Issued by NWS Boston, MA

Home | Current Version | Previous Version | Text Only | Print | Product List | Glossary On
Versions: 1 2 3 4 5 6 7 8 9 10 11 12 13 14 15 16 17 18 19 20 21 22 23 24 25 26 27 28 29 30 31 32 33 34 35 36 37 38 39 40 41
000
ASUS41 KBOX 271610
RWRBOX

REGIONAL WEATHER ROUNDUP
NATIONAL WEATHER SERVICE TAUNTON MA
1100 AM EST SAT DEC 27 2014

NOTE:  "FAIR" INDICATES FEW OR NO CLOUDS BELOW 12,000 FEET WITH NO
SIGNIFICANT WEATHER AND/OR OBSTRUCTIONS TO VISIBILITY.  THE FOLLOWING
OBSERVATION LOCATIONS DO NOT REPORT PRESENT WEATHER...PROVINCETOWN...
SMITHFIELD...BLOCK ISLAND...KEENE...AND OXFORD.

MAZALL-271700-
EASTERN MASSACHUSETTS

CITY           SKY/WX    TMP DP  RH WIND       PRES   REMARKS
BOSTON         MOSUNNY   48  31  51 W7        30.19F
BEVERLY        SUNNY     48  31  51 NW9       30.18F
LAWRENCE       SUNNY     47  32  56 W9        30.19F
BEDFORD        SUNNY     47  31  53 SW6       30.18F
BLUE HILL        N/A     45  30  55 W5        30.17F
NORWOOD        SUNNY     47  30  51 SW6       30.20F
MARSHFIELD     SUNNY     48  32  53 W5        30.21F
PLYMOUTH       SUNNY     48  32  53 W6        30.20F
TAUNTON        SUNNY     48  31  51 W6        30.20F
NEW BEDFORD    SUNNY     50  33  52 W8        30.20F
$$

MAZALL-271700-
CAPE COD AND THE ISLANDS

CITY           SKY/WX    TMP DP  RH WIND       PRES   REMARKS
FALMOUTH       SUNNY     48  32  53 W8        30.21F
HYANNIS        SUNNY     50  31  48 W9        30.19F
CHATHAM        SUNNY     50  34  54 VRB3      30.21F
PROVINCETOWN   SUNNY     46  34  61 W8        30.21F
NANTUCKET      SUNNY     49  36  61 W9        30.21F
MARTHAS VNYRD  SUNNY     50  32  50 W7        30.21F
$$

MAZALL-271700-
CENTRAL AND WESTERN MASSACHUSETTS

CITY           SKY/WX    TMP DP  RH WIND       PRES   REMARKS
WORCESTER      SUNNY     43  31  62 W14       30.18F
FITCHBURG      SUNNY     48  31  51 NW7       30.20F
ORANGE         SUNNY     43  32  65 CALM      30.19F
SPRINGFIELD    MOSUNNY   43  31  62 CALM      30.21F
WESTFIELD      MOSUNNY   47  31  53 SW5       30.21F
NORTH ADAMS    CLOUDY    44  32  62 W8        30.20F
PITTSFIELD     MOSUNNY   42  31  64 W8        30.18F
$$

RIZALL-271700-
RHODE ISLAND

CITY           SKY/WX    TMP DP  RH WIND       PRES   REMARKS
PROVIDENCE     PTSUNNY   49  31  49 W8        30.22F
NEWPORT        SUNNY     48  32  53 W5        30.21F
BLOCK ISLAND   SUNNY     48  34  57 W8        30.23F
SMITHFIELD     SUNNY     48  28  46 W6        30.20F
WESTERLY       SUNNY     48  33  56 SW5       30.23F
$$

CTZALL-271700-
CONNECTICUT

CITY           SKY/WX    TMP DP  RH WIND       PRES   REMARKS
BRADLEY INTL   MOSUNNY   45  31  58 S5        30.21F
HARTFORD       MOSUNNY   45  32  60 S3        30.23F
BRIDGEPORT     SUNNY     47  35  63 SW7       30.25F
DANBURY        SUNNY     47  30  51 SW5       30.24F
GROTON         SUNNY     46  35  65 SW6       30.23F
NEW HAVEN      SUNNY     49  31  49 W3        30.24F
CHESTER        FAIR      48  32  53 W3        30.23F
MERIDEN        MOSUNNY   47  31  53 CALM      30.23F
WILLIMANTIC    MOSUNNY   41  31  67 CALM      30.22F
OXFORD         MOSUNNY   45  30  57 VRB5      30.23F
$$

MEZ002-015-021-024-NHZ003-005-008-011-012-014-VTZ005-008-271700-
NORTHERN NEW ENGLAND

CITY           SKY/WX    TMP DP  RH WIND       PRES   REMARKS
PORTLAND ME    MOSUNNY   48  32  53 W5        30.15F
BANGOR ME      PTSUNNY   44  29  55 W8        30.11F
CONCORD NH     SUNNY     43  31  62 CALM      30.18F
MANCHESTER NH  MOSUNNY   45  31  58 CALM      30.17F
NASHUA NH      SUNNY     48  30  50 VRB6      30.19F
PORTSMOUTH NH  PTSUNNY   47  31  53 SW10      30.15F
JAFFREY NH     SUNNY     42  30  62 W5        30.18F
KEENE NH       SUNNY     39  28  65 CALM      30.20F
BURLINGTON VT  CLOUDY    41  30  65 S6        30.16F
MT. WASHINGTON PTSUNNY   23  19  86 NW45        N/A  WCI   2
$$

NYZ052-076-271700-
EASTERN NEW YORK

CITY           SKY/WX    TMP DP  RH WIND       PRES   REMARKS
ALBANY         CLOUDY    38  30  73 S3        30.23F
NEW YORK CITY  MOSUNNY   50  32  50 NW3       30.25F
$$

ANZALL-271700-
MARINE OBSERVATIONS

STATION/POSITION TIME  TEMP    WIND        PRES    VSBY  WAVE
                       AIR SEA DIR/SP/G                  HT/PER
                 (UTC) (F)     (DEG/KT/KT) (MB)    (MI)  (FT/S)
BOSTON BUOY      1550   43 44  270/ 10/ 12 1022.7F         2/14
BUZZARDS BAY     1500          250/  8/  9 1024.7R
NANTUCKET SOUND  1550   44 45  270/  8/ 10 1023.0F         1/ 5
MASS BAY-STELLWA 1504   44 44  280/  8/ 10   N/A     5/8   1/ 3
ISLE OF SHOALS   1600   44     260/ 11/ 12 1020.7F
S OF BLOCK IS    1508      51                N/A           4/15
$$

......................KEY.........................
  SKY/WX - SKY CONDITION/PRESENT WEATHER
  TMP    - TEMPERATURE IN FAHRENHEIT
  DWPT   - DEWPOINT IN FAHRENHEIT
  RH     - RELATIVE HUMIDITY IN PERCENT
  WIND   - DIRECTION AND SPEED IN MPH
  PRES   - MEAN SEA LEVEL PRESSURE IN INCHES OF HG
  WCI    - WIND CHILL INDEX
  VSB    - VISIBILITY IN MILES
  HX     - HEAT INDEX
  TC     - TEMPERATURE IN CELSIUS
  VRB    - VARIABLE WIND DIRECTION
  N/A    - NOT AVAILABLE



USA.gov is the U.S. government's official web portal to all federal, state and local government web resources and services.